Regional Weather Roundup
Issued by NWS

Home | Current Version | Previous Version | Text Only | Print | Product List | Glossary Off
Versions: 1 2 3 4 5 6 7 8 9 10 11 12 13 14 15 16 17 18 19 20 21 22 23 24 25 26 27

000
ASUS45 KBOU 292207
RWRCO

WEATHER ROUNDUP FOR COLORADO
NATIONAL WEATHER SERVICE DENVER/BOULDER CO
400 PM MDT MON AUG 29 2016

NOTE: "FAIR" INDICATES FEW OR NO CLOUDS BELOW 12000 FEET WITH NO
SIGNIFICANT WEATHER AND/OR OBSTRUCTIONS TO VISIBILITY.

COZ001>005-013-030-031-292300-
...NORTHWEST COLORADO...

CITY           SKY/WX    TMP DP  RH WIND       PRES   REMARKS
CRAIG          FAIR      82  29  14 MISG      30.28F
HAYDEN         FAIR      79  32  18 SE16      30.31S
MEEKER         FAIR      77  32  19 E9        30.29F
MOUNT WERNER   NOT AVBL
STEAMBOAT SPGS FAIR      75  27  16 NE6       30.33F
WALDEN         FAIR      70  32  24 E16G22    30.46S
$$

COZ006>008-011-292300-
...WEST CENTRAL VALLEYS...

CITY           SKY/WX    TMP DP  RH WIND       PRES   REMARKS
GRAND JUNCTION FAIR      85  41  21 E13G22    30.18F
MONTROSE       FAIR      72  45  37 N13       30.28S
EAGLE          CLOUDY    72  45  37 CALM      30.34F
RIFLE          FAIR      80  42  25 N5        30.23F
DELTA          PTSUNNY   78  42  27 N5        30.24F
NUCLA          PTSUNNY  N/A N/A N/A CALM      30.28F
$$

COZ017>023-064>068-292300-
...SOUTHWEST COLORADO...

CITY           SKY/WX    TMP DP  RH WIND       PRES   REMARKS
DURANGO        FAIR      72  40  31 VRB3      30.30F
CORTEZ         LGT RAIN  70  51  51 NE10      30.27S
PAGOSA SPRINGS PTSUNNY   66  37  35 CALM      30.41S
TELLURIDE      PTSUNNY   64  40  41 W5        30.48F
WOLF CREEK PAS FAIR      41  37  87 E10       30.69S
$$

COZ009-010-012-014-032>034-037-058>063-292300-
...CENTRAL COLORADO...

CITY           SKY/WX    TMP DP  RH WIND       PRES   REMARKS
ASPEN          PTSUNNY   71  42  35 N8        30.38F THUNDER
BUENA VISTA    TSTM      53  47  77 W12       30.49R
COPPER MTN     RAIN      45  36  70 SE14      30.72R
BERTHOUD PASS  PTSUNNY   43  30  61 NE12G18   30.74S THUNDER
COTTONWOOD PAS TSTM      50  41  71 SW3       30.60R
GUNNISON       PTSUNNY   61  41  48 S8        30.43R
KREMMLING      FAIR      77  30  18 W5        30.38F THUNDER
LEADVILLE      RAIN      44  40  85 E8        30.60R FOG
SALIDA         CLOUDY    62  43  50 N22G30    30.52R
SUNLIGHT       FAIR      54  41  62 SW3       30.63S
WILKERSON PASS CLOUDY    43  37  81 E14G22    30.68S THUNDER
$$

COZ069>075-292300-
...SAN LUIS VALLEY/SANGRE DE CRISTO MOUNTAINS...

CITY           SKY/WX    TMP DP  RH WIND       PRES   REMARKS
ALAMOSA        FAIR      71  41  33 SE13G22   30.38S
LA VETA PASS   CLOUDY    46  41  81 SE6       30.58F
SAGUACHE       CLOUDY    64  41  42 S13       30.41R
$$

COZ035-036-038>040-292300-
...NORTHERN COLORADO FRONT RANGE...

CITY           SKY/WX    TMP DP  RH WIND       PRES   REMARKS
DENVER INTL AP PTSUNNY   72  49  44 S13       30.30R
DMNS CITY PARK   N/A     65  53  65 S6G12     30.31S
AURORA         PTSUNNY   69  52  55 SW18G24   30.33R
FRONT RANGE AP PTSUNNY   73  52  46 SE9         N/A
ERIE MUNI ARPT LGT RAIN  70  51  50 SW7       30.28R
BOULDER MUN AP FAIR      72  46  40 S12G21    30.30R
CENTENNIAL     PTSUNNY   65  51  60 SW17G24   30.35R
BROOMFIELD     TSTM      64  54  68 W12       30.33R
FORT COLLINS   FAIR      77  46  33 E18G29    30.23R
LONGMONT       FAIR      78  48  35 S15       30.29R
$$

COZ041-046-047-076>085-087-088-292300-
...PIKES PEAK/PALMER DIVIDE AND SOUTHERN FOOTHILLS...

CITY           SKY/WX    TMP DP  RH WIND       PRES   REMARKS
COLO. SPRINGS  TSTM      56  54  93 NW14      30.42R FOG
A. F. ACADEMY  LGT RAIN  56  52  86 E8        30.44R
SCHRIEVER AFB  NOT AVBL
ELLICOTT       NOT AVBL
FALCON         RAIN      54  50  86 NW13      30.45R
FORT CARSON    DRIZZLE   59  50  72 N12       30.36R
LIMON          FAIR      74  55  51 SE17      30.30F
MONUMENT HILL  LGT RAIN  54  46  76 MISG      30.46R
TRINIDAD       FAIR      72  47  40 VRB3      30.32S
$$

COZ042>045-048>051-090-091-292300-
...NORTHEAST COLORADO...

CITY           SKY/WX    TMP DP  RH WIND       PRES   REMARKS
GREELEY ARPT   PTSUNNY   66  50  55 W16       30.27R THUNDER
AKRON          FAIR      76  56  49 SE10      30.26F
BURLINGTON     FAIR      74  58  57 S17       30.26F
WRAY           NOT AVBL
STERLING       FAIR      81  57  44 S9        30.20S
HOLYOKE        FAIR      79  63  57 S8        30.22F
FORT MORGAN    FAIR      83  51  32 SE15G22   30.25R
$$

COZ086-089-092>099-292300-
...SOUTHEAST COLORADO...

CITY           SKY/WX    TMP DP  RH WIND       PRES   REMARKS
PUEBLO         PTSUNNY   75  47  36 N30G37    30.25S
LA JUNTA       FAIR      78  54  43 SE9       30.22F
LAMAR          FAIR      80  58  46 SE12G21   30.19F
SPRINGFIELD      N/A     70  59  68 SE8       30.25F
$$




USA.gov is the U.S. government's official web portal to all federal, state and local government web resources and services.